Location: Veytaux
(46.4185°N, 6.9320°E)
Time: 08:40:58
(UTC+00:00)

CBERS-1 - Pass Details

Date: 27 May 2022
Orbit: 770 x 776 km, 98.7° (Epoch: 01 July)

Event Time Altitude Azimuth Distance (km) Brightness Sun altitude
Rises 02:48:32 0° 13° (NNE) 3,257 8.3 -8.7°
Reaches altitude 10° 02:50:51 10° 13° (NNE) 2,326 7.5 -8.4°
Maximum altitude 02:55:59 82° 287° (WNW) 786 4.0 -7.8°
Drops below altitude 10° 03:01:05 10° 200° (SSW) 2,313 6.0 -7.1°
Enters shadow 03:02:19 - 199° (SSW) 2,805 6.4 -7.0°
